Date String (YYYY-MM-DD hh:mm:ss) UTC,Instrument flags,absolute air pressure of the measurement (hPa),sample flow rate (lpm),inlet stack bypass flow (lpm),air temperature of the measurement (°C),ambient temperature measured by the external sensor (°C),aerosol sample conditioner tube jacket temperature (°C),OPC LED temperature (°C),internal box temperature (°C),relative humidity of the measurement (%),span deviation,mass concentration of particles derived from Lorenz-Mie calculation of OPC scattering (μg/m³),mass concentration of particles derived from Lorenz-Mie calculation of OPC scattering (μg/m³),mass concentration of particles derived from Lorenz-Mie calculation of OPC scattering (μg/m³)
DateTimeUTC,F1_M11,P_M11,Q1_M11,Q2_M11,T1_M11,T2_M11,T3_M11,T4_M11,T5_M11,U1_M11,ZSPAN_M11,X0_M11,X2_M11,X1_M11
2023-10-29 21:00:00,SystemResetWarning,0838.4,5.00,000.00,020.9,019.6,000.0,029.4,022.3,11.8,0000.2,0009.25,0007.27,0007.08
2023-10-29 21:01:00,SystemResetWarning,0838.4,5.00,000.00,020.9,019.6,000.0,029.4,022.4,11.8,0000.9,0009.95,0007.29,0007.10
2023-10-29 21:02:00,SystemResetWarning,0838.4,5.00,000.00,020.9,019.7,000.0,029.4,022.4,11.4,0000.7,0009.99,0007.30,0007.11
2023-10-29 21:03:00,SystemResetWarning,0838.4,5.00,000.00,020.9,019.7,000.0,029.4,022.5,11.4,0000.2,0009.97,0007.29,0007.11
2023-10-29 21:04:00,SystemResetWarning,0838.4,5.00,000.00,021.0,019.8,000.0,029.4,022.5,11.4,0000.1,0009.95,0007.33,0007.16
2023-10-29 21:05:00,SystemResetWarning,0838.4,5.00,000.00,021.0,019.8,000.0,029.4,022.6,11.2,0000.3,0010.03,0007.41,0007.23
2023-10-29 21:06:00,SystemResetWarning,0838.4,4.99,000.00,021.0,019.9,000.0,029.4,022.6,10.8,-000.4,0010.12,0007.46,0007.26
2023-10-29 21:07:00,SystemResetWarning,0838.4,5.00,000.00,021.0,019.8,000.0,029.4,022.5,11.0,-001.2,0010.09,0007.44,0007.26
2023-10-29 21:08:00,SystemResetWarning,0838.4,5.00,000.00,021.0,019.8,000.0,029.4,022.5,11.5,-001.5,0010.04,0007.41,0007.24
2023-10-29 21:09:00,SystemResetWarning,0838.4,5.00,000.00,021.0,019.8,000.0,029.4,022.5,11.5,-000.9,0009.98,0007.38,0007.22
2023-10-29 21:10:00,SystemResetWarning,0838.4,5.00,000.00,021.0,019.9,000.0,029.4,022.6,11.3,-000.4,0009.93,0007.35,0007.20
2023-10-29 21:11:00,SystemResetWarning,0838.4,5.00,000.00,021.0,019.9,000.0,029.4,022.5,11.6,-000.3,0009.91,0007.34,0007.20
2023-10-29 21:12:00,SystemResetWarning,0838.4,5.00,000.00,021.0,019.8,000.0,029.4,022.5,11.8,-000.7,0009.50,0007.33,0007.19
2023-10-29 21:13:00,SystemResetWarning,0838.4,5.00,000.00,021.0,019.8,000.0,029.4,022.5,11.9,-000.7,0009.20,0007.32,0007.18
2023-10-29 21:14:00,SystemResetWarning,0838.4,5.01,000.00,021.0,019.8,000.0,029.4,022.5,11.8,0000.1,0009.24,0007.33,0007.19
2023-10-29 21:15:00,SystemResetWarning,0838.4,5.01,000.00,021.0,019.8,000.0,029.4,022.4,11.5,0000.7,0009.27,0007.36,0007.21
2023-10-29 21:16:00,SystemResetWarning,0838.4,5.00,000.00,021.0,019.8,000.0,029.4,022.3,11.7,0000.7,0009.24,0007.37,0007.22
2023-10-29 21:17:00,SystemResetWarning,0838.5,5.01,000.00,020.9,019.7,000.0,029.4,022.2,11.7,0002.2,0009.15,0007.37,0007.24
2023-10-29 21:18:00,SystemResetWarning,0838.5,5.00,000.00,020.9,019.7,000.0,029.3,022.2,11.6,0003.1,0009.16,0007.38,0007.25
2023-10-29 21:19:00,SystemResetWarning,0838.5,5.00,000.00,020.9,019.7,000.0,029.3,022.2,11.7,0003.3,0009.16,0007.38,0007.25
2023-10-29 21:20:00,SystemResetWarning,0838.4,5.00,000.00,020.8,019.6,000.0,029.3,022.2,11.5,0002.2,0009.17,0007.37,0007.24
2023-10-29 21:21:00,SystemResetWarning,0838.4,5.00,000.00,020.8,019.6,000.0,029.3,022.2,11.6,0001.5,0009.18,0007.35,0007.22
2023-10-29 21:22:00,SystemResetWarning,0838.4,4.99,000.00,020.8,019.6,000.0,029.3,022.1,11.6,0001.3,0009.16,0007.32,0007.19
2023-10-29 21:23:00,SystemResetWarning,0838.4,4.99,000.00,020.8,019.6,000.0,029.3,022.1,11.5,0001.2,0009.16,0007.30,0007.15
2023-10-29 21:24:00,SystemResetWarning,0838.5,5.00,000.00,020.8,019.5,000.0,029.3,022.1,11.6,0000.1,0009.14,0007.29,0007.14
2023-10-29 21:25:00,SystemResetWarning,0838.4,5.00,000.00,020.7,019.5,000.0,029.3,022.1,11.3,0000.2,0009.09,0007.25,0007.10
2023-10-29 21:26:00,SystemResetWarning,0838.4,5.01,000.00,020.7,019.5,000.0,029.2,022.0,11.3,-000.5,0009.07,0007.20,0007.05
2023-10-29 21:27:00,SystemResetWarning,0838.4,5.00,000.00,020.7,019.5,000.0,029.2,022.0,11.4,-000.3,0009.05,0007.16,0007.01
2023-10-29 21:28:00,SystemResetWarning,0838.4,5.01,000.00,020.7,019.4,000.0,029.2,022.0,11.5,0000.0,0009.12,0007.12,0006.96
2023-10-29 21:29:00,SystemResetWarning,0838.4,5.00,000.00,020.7,019.4,000.0,029.2,022.0,11.4,-000.7,0009.11,0007.10,0006.93
2023-10-29 21:30:00,SystemResetWarning,0838.4,5.00,000.00,020.7,019.4,000.0,029.2,022.0,11.4,-000.9,0009.14,0007.13,0006.96
2023-10-29 21:31:00,SystemResetWarning,0838.4,5.00,000.00,020.7,019.4,000.0,029.2,022.0,11.5,-000.5,0009.20,0007.18,0007.00
2023-10-29 21:32:00,SystemResetWarning,0838.4,5.00,000.00,020.7,019.4,000.0,029.2,022.1,11.7,-000.1,0009.27,0007.24,0007.05
2023-10-29 21:33:00,SystemResetWarning,0838.4,5.00,000.00,020.7,019.4,000.0,029.2,022.1,11.7,-000.4,0009.29,0007.30,0007.12
2023-10-29 21:34:00,SystemResetWarning,0838.4,5.00,000.00,020.7,019.4,000.0,029.2,022.1,11.4,-000.6,0009.69,0007.38,0007.20
2023-10-29 21:35:00,SystemResetWarning,0838.4,5.00,000.00,020.7,019.4,000.0,029.1,022.1,11.2,0000.1,0009.76,0007.43,0007.26
2023-10-29 21:36:00,SystemResetWarning,0838.4,4.99,000.00,020.7,019.4,000.0,029.1,022.1,11.5,0000.2,0009.87,0007.50,0007.32
2023-10-29 21:37:00,SystemResetWarning,0838.5,5.00,000.00,020.7,019.5,000.0,029.1,022.2,11.8,0000.1,0009.89,0007.53,0007.35
2023-10-29 21:38:00,SystemResetWarning,0838.5,5.00,000.00,020.7,019.5,000.0,029.1,022.2,11.6,0000.6,0009.87,0007.52,0007.35
2023-10-29 21:39:00,SystemResetWarning,0838.5,5.00,000.00,020.7,019.5,000.0,029.1,022.1,11.0,0000.7,0009.83,0007.51,0007.35
2023-10-29 21:40:00,SystemResetWarning,0838.5,5.01,000.00,020.7,019.5,000.0,029.1,022.1,10.9,0000.5,0009.73,0007.48,0007.32
2023-10-29 21:41:00,SystemResetWarning,0838.5,5.00,000.00,020.7,019.4,000.0,029.1,022.1,10.8,0000.0,0009.66,0007.40,0007.25
2023-10-29 21:42:00,SystemResetWarning,0838.5,5.01,000.00,020.7,019.4,000.0,029.1,022.1,10.7,0000.0,0009.57,0007.32,0007.18
2023-10-29 21:43:00,SystemResetWarning,0838.5,5.00,000.00,020.7,019.4,000.0,029.1,022.1,10.7,0000.0,0009.49,0007.25,0007.12
2023-10-29 21:44:00,SystemResetWarning,0838.5,4.99,000.00,020.6,019.4,000.0,029.1,022.0,11.0,0000.0,0009.48,0007.24,0007.09
2023-10-29 21:45:00,SystemResetWarning,0838.5,4.99,000.00,020.6,019.4,000.0,029.1,022.0,11.5,0000.0,0009.36,0007.19,0007.05
2023-10-29 21:46:00,SystemResetWarning,0838.5,5.00,000.00,020.6,019.3,000.0,029.1,022.0,11.5,0000.0,0008.97,0007.13,0007.00
2023-10-29 21:47:00,SystemResetWarning,0838.5,5.01,000.00,020.6,019.3,000.0,029.1,022.0,11.5,0000.0,0009.00,0007.13,0006.99
2023-10-29 21:48:00,SystemResetWarning,0838.5,5.00,000.00,020.6,019.3,000.0,029.1,021.9,11.5,0000.0,0008.93,0007.14,0006.99
2023-10-29 21:49:00,SystemResetWarning,0838.6,5.00,000.00,020.6,019.3,000.0,029.0,021.9,11.5,0000.0,0008.93,0007.16,0007.01
2023-10-29 21:50:00,SystemResetWarning,0838.6,5.00,000.00,020.6,019.3,000.0,029.0,021.9,11.4,0000.0,0008.92,0007.20,0007.05
2023-10-29 21:51:00,SystemResetWarning,0838.6,5.00,000.00,020.5,019.2,000.0,029.0,021.8,11.4,0000.0,0008.94,0007.24,0007.10
2023-10-29 21:52:00,SystemResetWarning,0838.6,5.00,000.00,020.5,019.2,000.0,029.0,021.8,11.7,0000.0,0009.00,0007.32,0007.18
2023-10-29 21:53:00,SystemResetWarning,0838.6,5.00,000.00,020.5,019.2,000.0,029.0,021.8,12.0,0000.0,0009.07,0007.39,0007.24
2023-10-29 21:54:00,SystemResetWarning,0838.6,5.00,000.00,020.5,019.2,000.0,029.0,021.9,12.2,0000.0,0009.06,0007.41,0007.27
2023-10-29 21:55:00,SystemResetWarning,0838.6,5.00,000.00,020.5,019.2,000.0,029.0,021.9,12.0,0000.1,0009.05,0007.41,0007.28
2023-10-29 21:56:00,SystemResetWarning,0838.6,5.00,000.00,020.5,019.2,000.0,029.0,021.8,11.8,0000.6,0009.12,0007.47,0007.33
2023-10-29 21:57:00,SystemResetWarning,0838.6,5.00,000.00,020.4,019.2,000.0,028.9,021.8,11.9,0000.1,0009.19,0007.51,0007.34
2023-10-29 21:58:00,SystemResetWarning,0838.6,5.00,000.00,020.4,019.2,000.0,028.9,021.8,11.9,0000.1,0009.14,0007.48,0007.34
2023-10-29 21:59:00,SystemResetWarning,0838.6,5.00,000.00,020.4,019.2,000.0,028.9,021.7,11.9,0000.8,0009.05,0007.43,0007.31
